AFR87PQ LFPG-LFBO

Flight info

Callsign AFR87PQ
Flight time N/A
Altitude 35000
Route ERIXU DCT ETAMO DCT GUERE DCT NARAK
Aircraft A320/M-SDE2E3FGIJ1RWY/HB1

Departure

Time 2026-05-07 15:44
Airport Charles de Gaulle International Airport (LFPG)

Arrival

Time N/A
Airport Toulouse-Blagnac Airport (LFBO)
Time Latitude Longitude Altitude Speed Heading
2026-05-07 15:12 49.00653 2.58013 355 ft 0 kts 268°
2026-05-07 15:33 49.00653 2.58028 362 ft 2 kts 266°
2026-05-07 15:33 49.00654 2.58053 360 ft 2 kts 270°
2026-05-07 15:33 49.00655 2.58057 361 ft 0 kts 294°
2026-05-07 15:33 49.00649 2.58079 362 ft 2 kts 294°
2026-05-07 15:34 49.00641 2.58108 362 ft 3 kts 300°
2026-05-07 15:34 49.00628 2.58134 361 ft 3 kts 328°
2026-05-07 15:34 49.00616 2.58142 359 ft 0 kts 352°
2026-05-07 15:36 49.00619 2.58142 361 ft 3 kts 352°
2026-05-07 15:37 49.00666 2.58137 354 ft 11 kts 356°
2026-05-07 15:37 49.00756 2.58126 360 ft 14 kts 355°
2026-05-07 15:37 49.00861 2.58110 362 ft 16 kts 350°
2026-05-07 15:37 49.00901 2.57973 354 ft 16 kts 262°
2026-05-07 15:38 49.00893 2.57796 358 ft 18 kts 265°
2026-05-07 15:38 49.00884 2.57603 354 ft 19 kts 266°
2026-05-07 15:38 49.00871 2.57404 357 ft 19 kts 264°
2026-05-07 15:38 49.00859 2.57200 354 ft 19 kts 265°
2026-05-07 15:39 49.00848 2.56997 354 ft 19 kts 266°
2026-05-07 15:39 49.00840 2.56800 354 ft 19 kts 265°
2026-05-07 15:39 49.00827 2.56593 354 ft 21 kts 263°
2026-05-07 15:39 49.00810 2.56359 357 ft 24 kts 263°
2026-05-07 15:40 49.00788 2.56099 354 ft 27 kts 260°
2026-05-07 15:40 49.00757 2.55807 354 ft 29 kts 262°
2026-05-07 15:40 49.00739 2.55590 354 ft 21 kts 263°
2026-05-07 15:40 49.00714 2.55359 356 ft 21 kts 253°
2026-05-07 15:41 49.00623 2.55256 354 ft 19 kts 172°
2026-05-07 15:41 49.00485 2.55313 359 ft 22 kts 164°
2026-05-07 15:41 49.00325 2.55383 356 ft 25 kts 164°
2026-05-07 15:41 49.00151 2.55461 356 ft 20 kts 163°
2026-05-07 15:42 49.00005 2.55517 354 ft 23 kts 165°
2026-05-07 15:42 48.99873 2.55625 361 ft 15 kts 130°
2026-05-07 15:42 48.99812 2.55774 358 ft 18 kts 134°
2026-05-07 15:42 48.99699 2.55809 354 ft 17 kts 175°
2026-05-07 15:43 48.99606 2.55843 358 ft 11 kts 129°
2026-05-07 15:43 48.99606 2.55970 354 ft 18 kts 84°
2026-05-07 15:43 48.99634 2.56481 355 ft 84 kts 85°
2026-05-07 15:43 48.99700 2.57693 360 ft 142 kts 85°
2026-05-07 15:44 48.99790 2.59369 692 ft 162 kts 84°
2026-05-07 15:44 48.99869 2.61080 1474 ft 163 kts 85°
2026-05-07 15:44 48.99952 2.62808 2207 ft 164 kts 84°
2026-05-07 15:44 49.00032 2.64521 2900 ft 164 kts 85°
2026-05-07 15:45 49.00119 2.66253 3589 ft 165 kts 84°
2026-05-07 15:45 49.00221 2.68083 3982 ft 184 kts 84°
2026-05-07 15:45 49.00338 2.70145 4288 ft 207 kts 84°
2026-05-07 15:45 49.00468 2.72464 4659 ft 232 kts 85°
2026-05-07 15:46 49.00723 2.77824 5804 ft 268 kts 92°
2026-05-07 15:46 49.00480 2.80670 6682 ft 273 kts 100°
2026-05-07 15:46 48.99904 2.83386 7511 ft 277 kts 121°
2026-05-07 15:47 48.98637 2.85583 8357 ft 280 kts 146°
2026-05-07 15:47 48.96855 2.86750 9226 ft 282 kts 172°
2026-05-07 15:47 48.94904 2.86632 10067 ft 285 kts 197°
2026-05-07 15:47 48.93157 2.85233 10842 ft 287 kts 222°
2026-05-07 15:48 48.91918 2.82842 11512 ft 297 kts 238°
2026-05-07 15:48 48.90811 2.80048 11839 ft 318 kts 239°
2026-05-07 15:48 48.89682 2.77110 12516 ft 325 kts 240°
2026-05-07 15:48 48.88541 2.74124 13301 ft 329 kts 240°
2026-05-07 15:49 48.87383 2.71110 14075 ft 332 kts 240°
2026-05-07 15:49 48.86225 2.68116 14759 ft 335 kts 240°
2026-05-07 15:49 48.85034 2.65055 15474 ft 338 kts 240°
2026-05-07 15:49 48.83822 2.61983 16154 ft 341 kts 238°
2026-05-07 15:50 48.82519 2.58963 16846 ft 344 kts 236°
2026-05-07 15:50 48.81114 2.55939 17543 ft 347 kts 235°
2026-05-07 15:50 48.79688 2.52968 18231 ft 350 kts 234°
2026-05-07 15:50 48.78241 2.49975 18845 ft 353 kts 234°
2026-05-07 15:51 48.76788 2.46951 19407 ft 356 kts 234°
2026-05-07 15:51 48.75333 2.43897 20002 ft 359 kts 235°
2026-05-07 15:51 48.73824 2.40860 20576 ft 362 kts 230°
2026-05-07 15:51 48.71994 2.38216 21132 ft 367 kts 219°
2026-05-07 15:52 48.69845 2.36096 21683 ft 371 kts 212°
2026-05-07 15:52 48.68273 2.34692 22067 ft 372 kts 212°
2026-05-07 15:52 48.66040 2.32696 22602 ft 375 kts 212°
2026-05-07 15:52 48.63784 2.30671 23137 ft 378 kts 212°
2026-05-07 15:53 48.61548 2.28656 23661 ft 381 kts 212°
2026-05-07 15:53 48.59269 2.26601 24104 ft 383 kts 212°
2026-05-07 15:53 48.56969 2.24535 24560 ft 385 kts 212°
2026-05-07 15:53 48.54658 2.22467 24991 ft 388 kts 211°
2026-05-07 15:54 48.52196 2.20746 25416 ft 392 kts 201°
2026-05-07 15:54 48.50973 2.20181 25608 ft 395 kts 196°
2026-05-07 15:54 48.49059 2.19634 25902 ft 398 kts 188°
2026-05-07 15:54 48.46273 2.19511 26317 ft 403 kts 179°
2026-05-07 15:55 48.43462 2.19750 26724 ft 406 kts 179°
2026-05-07 15:55 48.40674 2.19988 27117 ft 408 kts 179°
2026-05-07 15:55 48.37837 2.20230 27521 ft 410 kts 179°
2026-05-07 15:55 48.34979 2.20468 27916 ft 412 kts 179°
2026-05-07 15:56 48.32107 2.20702 28314 ft 414 kts 179°